カタログに戻る

STARLINK-31030

運用中通信VLEO
NORAD 58542·PAYLOAD·🇺🇸 United States

打ち上げ Dec 8, 2023 から Vandenberg Space Force Base

Loading…

次のパス (今後24時間)

TLE

最新Source: CelesTrak SupGP

元期: Sep 14, 2026, 20:48 UTC

1 58542C 23192M   26257.86715278  .00047279  00000+0  13971-2 0  2575
2 58542  53.1569 259.9300 0001259  97.6940  26.6889 15.34361582    13

AllMySatでSTARLINK-31030をリアルタイム追跡

Download on the App Store